CZ-6A DEB

Satellite information

Favourite Embed

Satellite Type and Status

DEBRISIN ORBIT

Key statistics

Satellite CZ-6A DEB at a glance.

Uptime

1029

Days in orbit

Revolutions

≈ 14.1

Per day

Orbit

SSO

Sun Synchronous Orbit

Inclination

98.8

Latest

Satellite identification and parameters

Extended collection of information and parameters for CZ-6A DEB.

Object identification

Identified? True

Debris? True

Object name: CZ-6A DEB

International designator: 2022-151QK

Object number (NORAD): 54898

Object ID (CCSDS): 54898

Country: PEOPLES REPUBLIC OF CHINA (PRC)

Current information (Y/N): Y

RCS size: SMALL

Orbital parameters

Period: 102.406 minutes

Inclination: 98.8278 deg

SMA: 7250.657 km

Apoapsis: 932.188 km

Periapsis: 812.857 km

RAAN: 237.1481 deg

Eccentricy: 0.00822902

Argument of periapsis: 111.388 deg

Mean anomaly: 249.6094 deg

Mean motion: 14.06166272 rev/day

Mean motion (dot): 0.00001113 rev/day2

B* drag term: 0.00068120385 1/REarth

Two-line elements (TLE)

Creation date: Sept. 4, 2025, 4:29 a.m.

Reference frame: TEME

Reference center: EARTH

Epoch: Sept. 3, 2025, 9:57 p.m. UTC

TLE line 0: 0 CZ-6A DEB

TLE line 1: 1 54898U 22151QK 25246.91525236 .00001113 00000-0 68120-3 0 9993

TLE line 2: 2 54898 98.8278 237.1481 0082290 111.3880 249.6094 14.06166272141406

Live tracking on map

Real-time ground track for satellite CZ-6A DEB.

In-orbit conjunctions

A list of the most updated potential collisions computed for object CZ-6A DEB.

Target Orbit TCA Probability of collision Miss distance Type
DELTA 1 DEB SSO 2025-08-12 11:38:02 0.0001444582 88.0 (m) DEBRIS
GGSE 1 (GGRS) LEO 2024-09-18 07:11:22 0.001307167 197.0 (m) PAYLOAD

Associated space launch

Chinese satellite reported for atmospheric/ocean/environmental/spatial parameter research purposes, details TBD.

CZ-6A DEB was lifted into orbit during the mission ‘Long March 6A | Yunhai 3’, on board a Long March 6A space rocket.

The launch took place on Nov. 11, 2022, 10:52 p.m. from Launch Complex 9A.

For more information about the launch, click the button.

Launch to space Long March 6A | Yunhai 3
Long March 6A | Yunhai 3

Agency: N/A

Status: Launch Successful

Launch date: Nov. 11, 2022, 10:52 p.m. UTC

Rocket: Long March 6A

Launch pad: Launch Complex 9A

Location: Taiyuan Satellite Launch Center, People's Republic of China

...

Latest news about this satellite

There are no fresh news available about this satellite. Check back as we update our databases every day.


Newsletter sign-up

Weekly statistics, charts and insights to help you stay on top of the space industry.